Terminal Aerodrome Forecast
Issued by NWS Paducah, KY

Home | Current Version | Previous Version | Text Only | Print | Product List | Glossary Off
Versions: 1 2 3 4 5 6 7 8 9 10 11 12 13 14 15 16 17 18 19 20 21 22 23

000
FTUS43 KPAH 212320
TAFEVV
TAF
KEVV 212320Z 2200/2224 02009KT 6SM -RA OVC008
     FM220300 03011KT 4SM -RA BR OVC008
     FM220900 02007KT 5SM BR OVC008
     FM221500 04005KT P6SM OVC009=

USA.gov is the U.S. government's official web portal to all federal, state and local government web resources and services.